When you browse on this site, cookies collect data to enhance your experience and personalize the content and advertising you see.
Visit our Privacy Policy to learn more. By continuing to use the site, you agree to this use of cookies and data.
  • In Latvia
  • List of Countries
  • For 7 days
  • Water Temperature
  • Satellite Maps
  • Weather Map
  • Weather Widgets
  • user-avatar
    Login

    Hourly Weather Chumakov

    Today, 16 December, Sunday

    Time Temperature Precipitation Wind Pressure Humidity
    00:00 +2°C° 0.3 mm 2 mps 768 mmHg 89%
    01:00 +2°C° 0.1 mm 2 mps 768 mmHg 90%
    02:00 +2°C° 0.1 mm 2 mps 768 mmHg 90%
    03:00 +2°C° 0 mm 2 mps 768 mmHg 91%
    04:00 +1°C° 0 mm 3 mps 768 mmHg 90%
    05:00 +1°C° 0 mm 3 mps 768 mmHg 90%
    06:00 0°C° 0 mm 4 mps 768 mmHg 89%
    07:00 -1°C° 0 mm 4 mps 768 mmHg 87%
    08:00 -1°C° 0 mm 5 mps 768 mmHg 86%
    09:00 -1°C° 0 mm 5 mps 768 mmHg 83%
    10:00 -1°C° 0 mm 5 mps 768 mmHg 80%
    11:00 0°C° 0 mm 5 mps 768 mmHg 78%
    12:00 +1°C° 0 mm 5 mps 767 mmHg 75%
    13:00 +1°C° 0 mm 6 mps 767 mmHg 74%
    14:00 +1°C° 0 mm 6 mps 767 mmHg 73%
    15:00 +1°C° 0 mm 6 mps 767 mmHg 72%
    16:00 +1°C° 0 mm 6 mps 767 mmHg 74%
    17:00 -1°C° 0 mm 6 mps 767 mmHg 76%
    18:00 -2°C° 0 mm 6 mps 766 mmHg 78%
    19:00 -2°C° 0 mm 6 mps 766 mmHg 78%
    20:00 -2°C° 0 mm 6 mps 766 mmHg 79%
    21:00 -2°C° 0 mm 6 mps 766 mmHg 80%
    22:00 -2°C° 0 mm 6 mps 766 mmHg 80%
    23:00 -3°C° 0 mm 6 mps 766 mmHg 80%

    Tomorrow, 17 December, Monday

    Time Temperature Precipitation Wind Pressure Humidity
    00:00 -3°C° 0 mm 6 mps 766 mmHg 80%
    01:00 -3°C° 0 mm 6 mps 766 mmHg 80%
    02:00 -3°C° 0 mm 6 mps 765 mmHg 81%
    03:00 -3°C° 0 mm 6 mps 765 mmHg 81%
    04:00 -3°C° 0 mm 6 mps 765 mmHg 81%
    05:00 -3°C° 0 mm 6 mps 765 mmHg 80%
    06:00 -3°C° 0 mm 6 mps 764 mmHg 80%
    07:00 -3°C° 0 mm 6 mps 764 mmHg 79%
    08:00 -3°C° 0 mm 6 mps 764 mmHg 78%
    09:00 -3°C° 0 mm 6 mps 764 mmHg 77%
    10:00 -2°C° 0 mm 6 mps 764 mmHg 74%
    11:00 -1°C° 0 mm 6 mps 764 mmHg 71%
    12:00 +1°C° 0 mm 6 mps 763 mmHg 67%
    13:00 +1°C° 0 mm 6 mps 763 mmHg 67%
    14:00 +1°C° 0 mm 6 mps 763 mmHg 67%
    15:00 +1°C° 0 mm 6 mps 763 mmHg 67%
    16:00 -1°C° 0 mm 6 mps 763 mmHg 69%
    17:00 -2°C° 0 mm 6 mps 763 mmHg 72%
    18:00 -2°C° 0 mm 6 mps 763 mmHg 75%
    19:00 -3°C° 0 mm 6 mps 763 mmHg 76%
    20:00 -3°C° 0 mm 6 mps 763 mmHg 77%
    21:00 -3°C° 0 mm 6 mps 763 mmHg 77%
    22:00 -2°C° 0 mm 5 mps 763 mmHg 77%
    23:00 -2°C° 0 mm 5 mps 763 mmHg 78%

    Day after tomorrow, 18 December, Tuesday

    Time Temperature Precipitation Wind Pressure Humidity
    00:00 -2°C° 0 mm 5 mps 763 mmHg 78%
    01:00 -2°C° 0 mm 5 mps 763 mmHg 78%
    02:00 -2°C° 0 mm 5 mps 763 mmHg 79%
    03:00 -2°C° 0 mm 5 mps 763 mmHg 79%
    04:00 -2°C° 0 mm 4 mps 763 mmHg 80%
    05:00 -2°C° 0 mm 4 mps 763 mmHg 81%
    06:00 -2°C° 0 mm 4 mps 762 mmHg 81%
    07:00 -2°C° 0 mm 4 mps 763 mmHg 81%
    08:00 -1°C° 0 mm 4 mps 763 mmHg 80%
    09:00 -1°C° 0 mm 4 mps 763 mmHg 80%
    10:00 0°C° 0 mm 4 mps 763 mmHg 76%
    11:00 +1°C° 0 mm 4 mps 763 mmHg 73%
    12:00 +4°C° 0 mm 4 mps 763 mmHg 69%
    13:00 +4°C° 0 mm 4 mps 763 mmHg 70%
    14:00 +4°C° 0 mm 4 mps 763 mmHg 70%
    15:00 +4°C° 0 mm 4 mps 763 mmHg 71%
    16:00 +3°C° 0 mm 4 mps 763 mmHg 75%
    17:00 +3°C° 0 mm 4 mps 763 mmHg 80%
    18:00 +1°C° 0 mm 4 mps 763 mmHg 84%
    19:00 +1°C° 0.1 mm 4 mps 763 mmHg 85%
    20:00 +1°C° 0.1 mm 3 mps 763 mmHg 86%
    21:00 +1°C° 0.1 mm 3 mps 763 mmHg 87%
    22:00 +1°C° 0.3 mm 3 mps 763 mmHg 88%
    23:00 +1°C° 0.3 mm 3 mps 763 mmHg 88%

    19 December, Wednesday

    Time Temperature Precipitation Wind Pressure Humidity
    00:00 +1°C° 0.3 mm 3 mps 763 mmHg 88%
    01:00 +2°C° 0.1 mm 3 mps 763 mmHg 88%
    02:00 +2°C° 0.1 mm 3 mps 763 mmHg 88%
    03:00 +2°C° 0.1 mm 3 mps 763 mmHg 88%
    04:00 +2°C° 0 mm 3 mps 763 mmHg 88%
    05:00 +2°C° 0 mm 3 mps 763 mmHg 88%
    06:00 +1°C° 0 mm 4 mps 763 mmHg 88%
    07:00 +1°C° 0 mm 4 mps 763 mmHg 87%
    08:00 +1°C° 0 mm 4 mps 763 mmHg 87%
    09:00 +1°C° 0 mm 4 mps 763 mmHg 86%
    10:00 +3°C° 0 mm 4 mps 763 mmHg 82%
    11:00 +5°C° 0 mm 4 mps 762 mmHg 78%
    12:00 +6°C° 0 mm 4 mps 762 mmHg 73%
    13:00 +6°C° 0 mm 4 mps 762 mmHg 73%
    14:00 +6°C° 0 mm 4 mps 762 mmHg 72%
    15:00 +7°C° 0 mm 5 mps 761 mmHg 71%
    16:00 +6°C° 0 mm 5 mps 761 mmHg 74%
    17:00 +5°C° 0 mm 5 mps 761 mmHg 77%
    18:00 +3°C° 0 mm 5 mps 762 mmHg 80%
    19:00 +3°C° 0.1 mm 5 mps 762 mmHg 80%
    20:00 +3°C° 0.1 mm 5 mps 762 mmHg 81%
    21:00 +3°C° 0.1 mm 5 mps 762 mmHg 81%
    22:00 +3°C° 0.2 mm 5 mps 762 mmHg 82%
    23:00 +3°C° 0.2 mm 5 mps 762 mmHg 82%

    20 December, Thursday

    Time Temperature Precipitation Wind Pressure Humidity
    00:00 +3°C° 0.2 mm 5 mps 762 mmHg 83%
    01:00 +4°C° 0.3 mm 4 mps 762 mmHg 83%
    02:00 +4°C° 0.3 mm 4 mps 762 mmHg 84%
    03:00 +4°C° 0.3 mm 4 mps 762 mmHg 84%
    04:00 +3°C° 0.3 mm 4 mps 762 mmHg 85%
    05:00 +3°C° 0.3 mm 4 mps 762 mmHg 85%
    06:00 +3°C° 0.3 mm 4 mps 762 mmHg 86%
    07:00 +4°C° 0.3 mm 4 mps 762 mmHg 86%
    08:00 +4°C° 0.3 mm 4 mps 762 mmHg 86%
    09:00 +4°C° 0.3 mm 4 mps 762 mmHg 86%
    10:00 +4°C° 0.4 mm 4 mps 762 mmHg 85%
    11:00 +5°C° 0.4 mm 4 mps 763 mmHg 84%
    12:00 +5°C° 0.4 mm 4 mps 763 mmHg 83%
    13:00 +5°C° 0.3 mm 3 mps 763 mmHg 83%
    14:00 +5°C° 0.3 mm 3 mps 763 mmHg 83%
    15:00 +7°C° 0.3 mm 3 mps 762 mmHg 83%
    16:00 +5°C° 0.1 mm 3 mps 763 mmHg 84%
    17:00 +5°C° 0.1 mm 3 mps 763 mmHg 85%
    18:00 +5°C° 0.1 mm 3 mps 763 mmHg 86%
    19:00 +5°C° 0.1 mm 3 mps 764 mmHg 87%
    20:00 +5°C° 0.1 mm 3 mps 764 mmHg 87%
    21:00 +5°C° 0.1 mm 3 mps 764 mmHg 88%
    22:00 +5°C° 0.1 mm 3 mps 764 mmHg 89%
    23:00 +5°C° 0.1 mm 3 mps 764 mmHg 89%

    21 December, Friday

    Time Temperature Precipitation Wind Pressure Humidity
    00:00 +4°C° 0.1 mm 3 mps 764 mmHg 90%
    01:00 +5°C° 0.1 mm 2 mps 765 mmHg 90%
    02:00 +5°C° 0.1 mm 2 mps 765 mmHg 91%
    03:00 +6°C° 0.1 mm 2 mps 765 mmHg 91%
    04:00 +5°C° 0.1 mm 2 mps 765 mmHg 92%
    05:00 +5°C° 0.1 mm 2 mps 765 mmHg 92%
    06:00 +6°C° 0.1 mm 1 mps 765 mmHg 93%
    07:00 +6°C° 0 mm 1 mps 765 mmHg 93%
    08:00 +6°C° 0 mm 1 mps 765 mmHg 93%
    09:00 +7°C° 0 mm 1 mps 766 mmHg 93%
    10:00 +7°C° 0 mm 1 mps 766 mmHg 89%
    11:00 +7°C° 0 mm 2 mps 766 mmHg 85%
    12:00 +8°C° 0 mm 2 mps 766 mmHg 82%
    13:00 +8°C° 0 mm 2 mps 765 mmHg 81%
    14:00 +8°C° 0 mm 2 mps 765 mmHg 80%
    15:00 +8°C° 0 mm 2 mps 765 mmHg 80%
    16:00 +7°C° 0 mm 2 mps 765 mmHg 83%
    17:00 +8°C° 0 mm 1 mps 765 mmHg 87%
    18:00 +7°C° 0 mm 1 mps 765 mmHg 91%
    19:00 +6°C° 0 mm 1 mps 765 mmHg 92%
    20:00 +6°C° 0 mm 1 mps 765 mmHg 93%
    21:00 +5°C° 0 mm 0 mps 765 mmHg 94%
    22:00 +4°C° 0 mm 0 mps 765 mmHg 94%
    23:00 +4°C° 0 mm 0 mps 765 mmHg 94%
    Show more